Time,TemperatureF,DewpointF,PressureIn,WindDirection,WindDirectionDegrees,WindSpeedMPH,WindSpeedGustMPH,Humidity,HourlyPrecipIn,Conditions,Clouds,dailyrainin,SolarRadiationWatts/m^2,SoftwareType,DateUTC
2013-03-08 00:01:00,24.0,12.0,-100.00,SE,140,6.0,10.0,60,0.00,,,0.00,0.000000,,2013-03-08 06:01:00,
2013-03-08 00:32:00,24.0,13.0,-100.00,SE,134,6.0,11.0,63,0.00,,,0.00,0.000000,,2013-03-08 06:32:00,
2013-03-08 00:42:00,24.0,13.0,-100.00,SE,134,6.0,11.0,63,0.00,,,0.00,0.000000,,2013-03-08 06:42:00,
2013-03-08 00:52:00,24.0,13.0,-100.00,SE,134,6.0,11.0,63,0.00,,,0.00,0.000000,,2013-03-08 06:52:00,
2013-03-08 01:01:00,24.0,13.0,-100.00,SE,134,6.0,11.0,63,0.00,,,0.00,0.000000,,2013-03-08 07:01:00,
2013-03-08 01:32:00,22.0,13.0,-100.00,SE,145,5.0,10.0,68,0.00,,,0.00,0.000000,,2013-03-08 07:32:00,
2013-03-08 01:42:00,22.0,13.0,-100.00,SE,145,5.0,10.0,68,0.00,,,0.00,0.000000,,2013-03-08 07:42:00,
2013-03-08 01:52:00,22.0,13.0,-100.00,SE,145,5.0,10.0,68,0.00,,,0.00,0.000000,,2013-03-08 07:52:00,
2013-03-08 02:01:00,22.0,13.0,-100.00,SE,145,5.0,10.0,68,0.00,,,0.00,0.000000,,2013-03-08 08:01:00,
2013-03-08 02:32:00,21.0,14.0,-100.00,SE,137,5.0,8.0,74,0.00,,,0.00,0.000000,,2013-03-08 08:32:00,
2013-03-08 02:42:00,21.0,14.0,-100.00,SE,137,5.0,8.0,74,0.00,,,0.00,0.000000,,2013-03-08 08:42:00,
2013-03-08 02:52:00,21.0,14.0,-100.00,SE,137,5.0,8.0,74,0.00,,,0.00,0.000000,,2013-03-08 08:52:00,
2013-03-08 03:03:00,21.0,14.0,-100.00,SE,137,5.0,8.0,74,0.00,,,0.00,0.000000,,2013-03-08 09:03:00,
2013-03-08 03:32:00,20.0,14.0,-100.00,SE,136,5.0,10.0,77,0.00,,,0.00,0.000000,,2013-03-08 09:32:00,
2013-03-08 03:42:00,20.0,14.0,-100.00,SE,136,5.0,10.0,77,0.00,,,0.00,0.000000,,2013-03-08 09:42:00,
2013-03-08 03:52:00,20.0,14.0,-100.00,SE,136,5.0,10.0,77,0.00,,,0.00,0.000000,,2013-03-08 09:52:00,
2013-03-08 04:01:00,20.0,14.0,-100.00,SE,136,5.0,10.0,77,0.00,,,0.00,0.000000,,2013-03-08 10:01:00,
2013-03-08 04:32:00,20.0,15.0,-100.00,SE,136,6.0,9.0,80,0.00,,,0.00,0.000000,,2013-03-08 10:32:00,
2013-03-08 04:42:00,20.0,15.0,-100.00,SE,136,6.0,9.0,80,0.00,,,0.00,0.000000,,2013-03-08 10:42:00,
2013-03-08 04:52:00,20.0,15.0,-100.00,SE,136,6.0,9.0,80,0.00,,,0.00,0.000000,,2013-03-08 10:52:00,
2013-03-08 05:01:00,20.0,15.0,-100.00,SE,136,6.0,9.0,80,0.00,,,0.00,0.000000,,2013-03-08 11:01:00,
2013-03-08 05:32:00,19.0,14.0,-100.00,SE,131,6.0,10.0,82,0.00,,,0.00,0.000000,,2013-03-08 11:32:00,
2013-03-08 05:42:00,19.0,14.0,-100.00,SE,131,6.0,10.0,82,0.00,,,0.00,0.000000,,2013-03-08 11:42:00,
2013-03-08 05:52:00,19.0,14.0,-100.00,SE,131,6.0,10.0,82,0.00,,,0.00,0.000000,,2013-03-08 11:52:00,
2013-03-08 06:01:00,19.0,14.0,-100.00,SE,131,6.0,10.0,82,0.00,,,0.00,0.000000,,2013-03-08 12:01:00,
2013-03-08 06:32:00,19.0,15.0,-100.00,SSE,148,5.0,11.0,83,0.00,,,0.00,0.000000,,2013-03-08 12:32:00,
2013-03-08 06:43:00,19.0,15.0,-100.00,SSE,148,5.0,11.0,83,0.00,,,0.00,0.000000,,2013-03-08 12:43:00,
2013-03-08 06:53:00,19.0,15.0,-100.00,SSE,148,5.0,11.0,83,0.00,,,0.00,0.000000,,2013-03-08 12:53:00,
2013-03-08 07:01:00,19.0,15.0,-100.00,SSE,148,5.0,11.0,83,0.00,,,0.00,0.000000,,2013-03-08 13:01:00,
2013-03-08 07:32:00,19.0,15.0,-100.00,SE,136,5.0,10.0,85,0.00,,,-99.99,10.000000,,2013-03-08 13:32:00,
2013-03-08 07:42:00,19.0,15.0,-100.00,SE,136,5.0,10.0,85,0.00,,,-99.99,10.000000,,2013-03-08 13:42:00,
2013-03-08 07:52:00,19.0,15.0,-100.00,SE,136,5.0,10.0,85,0.00,,,-99.99,10.000000,,2013-03-08 13:52:00,
2013-03-08 08:02:00,19.0,15.0,-100.00,SE,136,5.0,10.0,85,0.00,,,-99.99,10.000000,,2013-03-08 14:02:00,
2013-03-08 08:32:00,23.0,17.0,-100.00,SE,133,5.0,11.0,77,0.00,,,0.00,128.000000,,2013-03-08 14:32:00,
2013-03-08 08:42:00,23.0,17.0,-100.00,SE,133,5.0,11.0,77,0.00,,,0.00,128.000000,,2013-03-08 14:42:00,
2013-03-08 08:52:00,23.0,17.0,-100.00,SE,133,5.0,11.0,77,0.00,,,0.00,128.000000,,2013-03-08 14:52:00,
2013-03-08 09:03:00,23.0,17.0,-100.00,SE,133,5.0,11.0,77,0.00,,,0.00,128.000000,,2013-03-08 15:03:00,
2013-03-08 09:32:00,28.0,19.0,-100.00,SE,140,7.0,12.0,69,0.00,,,0.00,297.000000,,2013-03-08 15:32:00,
2013-03-08 09:43:00,28.0,19.0,-100.00,SE,140,7.0,12.0,69,0.00,,,0.00,297.000000,,2013-03-08 15:43:00,
2013-03-08 09:53:00,28.0,19.0,-100.00,SE,140,7.0,12.0,69,0.00,,,0.00,297.000000,,2013-03-08 15:53:00,
2013-03-08 10:01:00,28.0,19.0,-100.00,SE,140,7.0,12.0,69,0.00,,,0.00,297.000000,,2013-03-08 16:01:00,
2013-03-08 10:32:00,33.0,22.0,-100.00,SSE,150,9.0,14.0,64,0.00,,,0.00,454.000000,,2013-03-08 16:32:00,
2013-03-08 10:42:00,33.0,22.0,-100.00,SSE,150,9.0,14.0,64,0.00,,,0.00,454.000000,,2013-03-08 16:42:00,
2013-03-08 10:52:00,33.0,22.0,-100.00,SSE,150,9.0,14.0,64,0.00,,,0.00,454.000000,,2013-03-08 16:52:00,
2013-03-08 11:02:00,33.0,22.0,-100.00,SSE,150,9.0,14.0,64,0.00,,,0.00,454.000000,,2013-03-08 17:02:00,
2013-03-08 11:32:00,36.0,23.0,-100.00,SE,146,9.0,14.0,59,0.00,,,0.00,594.000000,,2013-03-08 17:32:00,
2013-03-08 11:42:00,36.0,23.0,-100.00,SE,146,9.0,14.0,59,0.00,,,0.00,594.000000,,2013-03-08 17:42:00,
2013-03-08 11:52:00,36.0,23.0,-100.00,SE,146,9.0,14.0,59,0.00,,,0.00,594.000000,,2013-03-08 17:52:00,
2013-03-08 12:02:00,36.0,23.0,-100.00,SE,146,9.0,14.0,59,0.00,,,0.00,594.000000,,2013-03-08 18:02:00,
2013-03-08 12:32:00,40.0,24.0,-100.00,SSE,161,8.0,13.0,53,0.00,,,0.00,672.000000,,2013-03-08 18:32:00,
2013-03-08 12:42:00,40.0,24.0,-100.00,SSE,161,8.0,13.0,53,0.00,,,0.00,672.000000,,2013-03-08 18:42:00,
2013-03-08 12:52:00,40.0,24.0,-100.00,SSE,161,8.0,13.0,53,0.00,,,0.00,672.000000,,2013-03-08 18:52:00,
2013-03-08 13:01:00,40.0,24.0,-100.00,SSE,161,8.0,13.0,53,0.00,,,0.00,672.000000,,2013-03-08 19:01:00,
2013-03-08 13:32:00,43.0,25.0,-100.00,SSE,166,8.0,15.0,49,0.00,,,0.00,691.000000,,2013-03-08 19:32:00,
2013-03-08 13:42:00,43.0,25.0,-100.00,SSE,166,8.0,15.0,49,0.00,,,0.00,691.000000,,2013-03-08 19:42:00,
2013-03-08 13:52:00,43.0,25.0,-100.00,SSE,166,8.0,15.0,49,0.00,,,0.00,691.000000,,2013-03-08 19:52:00,
2013-03-08 14:01:00,43.0,25.0,-100.00,SSE,166,8.0,15.0,49,0.00,,,0.00,691.000000,,2013-03-08 20:01:00,
2013-03-08 14:32:00,44.0,26.0,-100.00,SSE,160,8.0,14.0,48,0.00,,,0.00,646.000000,,2013-03-08 20:32:00,
2013-03-08 14:42:00,44.0,26.0,-100.00,SSE,160,8.0,14.0,48,0.00,,,0.00,646.000000,,2013-03-08 20:42:00,
2013-03-08 14:53:00,44.0,26.0,-100.00,SSE,160,8.0,14.0,48,0.00,,,0.00,646.000000,,2013-03-08 20:53:00,
2013-03-08 15:02:00,44.0,26.0,-100.00,SSE,160,8.0,14.0,48,0.00,,,0.00,646.000000,,2013-03-08 21:02:00,
2013-03-08 15:33:00,44.0,26.0,-100.00,SSE,155,9.0,14.0,48,0.00,,,0.00,543.000000,,2013-03-08 21:33:00,
2013-03-08 15:42:00,44.0,26.0,-100.00,SSE,155,9.0,14.0,48,0.00,,,0.00,543.000000,,2013-03-08 21:42:00,
2013-03-08 15:52:00,44.0,26.0,-100.00,SSE,155,9.0,14.0,48,0.00,,,0.00,543.000000,,2013-03-08 21:52:00,
2013-03-08 16:01:00,44.0,26.0,-100.00,SSE,155,9.0,14.0,48,0.00,,,0.00,543.000000,,2013-03-08 22:01:00,
2013-03-08 16:32:00,44.0,25.0,-100.00,SSE,158,8.0,12.0,46,0.00,,,0.00,397.000000,,2013-03-08 22:32:00,
2013-03-08 16:42:00,44.0,25.0,-100.00,SSE,158,8.0,12.0,46,0.00,,,0.00,397.000000,,2013-03-08 22:42:00,
2013-03-08 16:53:00,44.0,25.0,-100.00,SSE,158,8.0,12.0,46,0.00,,,0.00,397.000000,,2013-03-08 22:53:00,
2013-03-08 17:01:00,44.0,25.0,-100.00,SSE,158,8.0,12.0,46,0.00,,,0.00,397.000000,,2013-03-08 23:01:00,
2013-03-08 17:32:00,42.0,25.0,-100.00,SSE,154,5.0,11.0,50,0.00,,,0.00,206.000000,,2013-03-08 23:32:00,
2013-03-08 17:42:00,42.0,25.0,-100.00,SSE,154,5.0,11.0,50,0.00,,,0.00,206.000000,,2013-03-08 23:42:00,
2013-03-08 17:53:00,42.0,25.0,-100.00,SSE,154,5.0,11.0,50,0.00,,,0.00,206.000000,,2013-03-08 23:53:00,
2013-03-08 18:02:00,42.0,25.0,-100.00,SSE,154,5.0,11.0,50,0.00,,,0.00,206.000000,,2013-03-09 00:02:00,
2013-03-08 18:32:00,39.0,25.0,-100.00,SSE,156,5.0,9.0,58,0.00,,,0.00,42.000000,,2013-03-09 00:32:00,
2013-03-08 18:42:00,39.0,25.0,-100.00,SSE,156,5.0,9.0,58,0.00,,,0.00,42.000000,,2013-03-09 00:42:00,
2013-03-08 18:52:00,39.0,25.0,-100.00,SSE,156,5.0,9.0,58,0.00,,,0.00,42.000000,,2013-03-09 00:52:00,
2013-03-08 19:01:00,39.0,25.0,-100.00,SSE,156,5.0,9.0,58,0.00,,,0.00,42.000000,,2013-03-09 01:01:00,
2013-03-08 21:32:00,34.0,23.0,-100.00,SE,144,5.0,13.0,64,-99.99,,,0.00,0.000000,,2013-03-09 03:32:00,
2013-03-08 21:42:00,34.0,23.0,-100.00,SE,144,5.0,13.0,64,-99.99,,,0.00,0.000000,,2013-03-09 03:42:00,
2013-03-08 21:52:00,34.0,23.0,-100.00,SE,144,5.0,13.0,64,-99.99,,,0.00,0.000000,,2013-03-09 03:52:00,
2013-03-08 22:01:00,34.0,23.0,-100.00,SE,144,5.0,13.0,64,-99.99,,,0.00,0.000000,,2013-03-09 04:01:00,
2013-03-08 22:32:00,33.0,23.0,-100.00,SSE,147,6.0,11.0,65,0.00,,,0.00,0.000000,,2013-03-09 04:32:00,
2013-03-08 22:42:00,33.0,23.0,-100.00,SSE,147,6.0,11.0,65,0.00,,,0.00,0.000000,,2013-03-09 04:42:00,
2013-03-08 22:52:00,33.0,23.0,-100.00,SSE,147,6.0,11.0,65,0.00,,,0.00,0.000000,,2013-03-09 04:52:00,
2013-03-08 23:02:00,33.0,23.0,-100.00,SSE,147,6.0,11.0,65,0.00,,,0.00,0.000000,,2013-03-09 05:02:00,
2013-03-08 23:32:00,32.0,22.0,-100.00,SSE,157,7.0,12.0,67,0.00,,,0.00,0.000000,,2013-03-09 05:32:00,
2013-03-08 23:43:00,32.0,22.0,-100.00,SSE,157,7.0,12.0,67,0.00,,,0.00,0.000000,,2013-03-09 05:43:00,
2013-03-08 23:53:00,32.0,22.0,-100.00,SSE,157,7.0,12.0,67,0.00,,,0.00,0.000000,,2013-03-09 05:53:00,